Terug naar catalogus

STARLINK-3357

ActiefCommunicatieVLEO
NORAD 51150·PAYLOAD·🇺🇸 United States

Gelanceerd Jan 19, 2022 vanaf Cape Canaveral Space Force Station

Loading…

Volgende Passages (komende 24 uur)

TLE

VersSource: CelesTrak SupGP

Epoch: Sep 14, 2026, 21:19 UTC

1 51150C 22005AY  26257.88868056 -.00034274  00000+0 -98068-3 0  2574
2 51150  53.1568 157.1996 0001245  91.9924 333.3979 15.35412730    15

Volg STARLINK-3357 in realtime met AllMySat

Download on the App Store